Location: Weymouth Pines Observatory
(42.9326°N, 81.3883°W)
Time: 04:40:14
(UTC-04:00)

Daily predictions for brighter satellites

Satellite Brightness Start Highest point End
(mag) Time Altitude Azimuth Time Altitude Azimuth Time Altitude Azimuth
Cosmos 1703 Rocket 3.6 00:05:02 10° NNW 00:09:24 73° W 00:10:13 56° SSW
Cosmos 2251 Rocket 4.4 00:05:39 10° N 00:10:41 41° ENE 00:12:29 31° ESE
BREEZE-M DEB (TANK) 3.9 00:05:14 10° WNW 00:16:28 55° N 00:19:08 18° E
Cosmos 1892 4.2 00:17:14 25° ENE 00:17:14 25° ENE 00:19:49 10° NNE
Cosmos 1626 4.4 00:16:07 15° WSW 00:18:00 20° WNW 00:20:53 10° NNW
Cosmos 1269 Rocket 4.4 00:13:52 10° NNW 00:19:03 55° WSW 00:20:28 42° SSW
H-2A R/B 3.6 00:17:35 20° SW 00:20:04 27° W 00:24:41 10° NW
Cosmos 2074 Rocket 4.1 00:19:31 42° SSE 00:21:33 64° E 00:27:46 10° NNE
Cosmos 44 4.4 00:22:02 32° ESE 00:22:02 32° ESE 00:26:31 10° NE
Cosmos 2221 Rocket 4.0 00:19:16 10° NNW 00:23:44 55° W 00:24:36 46° SW
Cosmos 1709 Rocket 4.5 00:22:36 26° SW 00:25:54 54° WNW 00:31:53 10° N
Meteor 2-3 Rocket 3.8 00:25:13 48° SSE 00:26:43 68° E 00:32:23 10° NNE
SeaSat 1 2.4 00:26:25 51° SE 00:27:36 76° ENE 00:32:34 10° NNW
In-Cosmos 22 Rocket 4.2 00:26:40 49° S 00:28:15 77° E 00:34:03 10° NNE
NOSS 2-3 (C) 3.9 00:29:03 45° SW 00:30:40 89° SE 00:36:26 10° NE
Lacrosse 4 Rocket 2.1 00:30:29 10° NW 00:34:44 45° WSW 00:34:52 44° WSW
Cosmos 389 Rocket 3.0 00:32:11 10° NNW 00:35:18 53° WNW 00:35:18 53° WNW
CZ-4B R/B 2.5 00:37:08 38° NE 00:37:08 38° NE 00:39:55 10° N
ASTEX 1 3.6 00:32:07 10° NNE 00:36:53 51° E 00:37:24 48° ESE
GEOS 3 Rocket 3.9 00:38:26 39° ESE 00:40:18 65° NE 00:45:27 10° NNW
Cosmos 2227 Rocket 4.2 00:40:05 10° WSW 00:44:43 25° NW 00:49:23 10° N
Cosmos 2263 Rocket 3.8 00:46:18 19° E 00:46:26 19° E 00:50:20 10° NE
Cosmos 1932 4.4 00:42:05 10° NW 00:48:31 84° WSW 00:50:32 47° SSE
NOSS 3-4 (A) 4.4 00:50:43 30° ESE 00:51:01 31° ESE 00:56:35 10° NE
NOSS 3-4 (C) 4.4 00:50:49 30° ESE 00:51:07 30° ESE 00:56:40 10° NE
Meteor 2-10 Rocket 3.7 00:45:36 10° N 00:51:14 78° E 00:52:36 53° SSE
NOSS 2-3 (D) 4.3 00:49:46 34° WSW 00:51:55 67° NW 00:57:40 10° NNE
Cosmos 2154 Rocket 4.3 00:50:46 43° SE 00:52:25 54° E 00:58:31 10° NNE
Cosmos 158 Rocket 4.0 00:50:17 10° NNW 00:55:30 62° WSW 00:56:13 56° SW
COSMOS 2455 3.7 00:50:46 10° NW 00:56:06 33° WSW 00:57:11 31° SW
CZ-4C R/B 3.2 00:50:09 10° NNW 00:57:06 61° NE 01:01:44 25° ESE
SL-16 R/B 3.2 00:54:05 10° NW 00:59:03 32° WSW 01:00:04 30° SW
Cosmos 2333 Rocket 4.5 00:57:42 10° WNW 00:59:35 12° W 01:01:24 10° WSW
Landsat 5 3.5 01:01:26 73° ESE 01:01:45 78° ENE 01:06:18 10° N
Cosmos 2227 4.1 01:02:28 50° SW 01:04:01 82° WNW 01:09:45 10° NNE
Cosmos 2184 Rocket 4.2 01:01:54 41° SW 01:04:03 64° W 01:10:13 10° N
Cosmos 1782 3.0 01:00:22 10° N 01:04:04 61° ENE 01:04:04 61° ENE
Cosmos 44 Rocket 4.0 01:02:33 30° WSW 01:04:54 54° NW 01:10:04 10° NNE
CZ-2C R/B 3.2 01:03:26 10° NNE 01:08:19 39° E 01:08:48 38° ESE
H-2A R/B 2.5 01:04:41 10° N 01:08:56 75° WNW 01:09:09 73° WSW
Cosmos 1340 Rocket 3.0 01:10:33 65° NW 01:10:33 65° NW 01:14:13 10° N
Cosmos 2297 Rocket 4.3 01:07:17 10° WSW 01:11:39 23° NW 01:16:04 10° N
Aureole 2 Rocket 4.2 01:10:26 10° NW 01:12:08 24° WNW 01:12:08 24° WNW
Cosmos 1733 Rocket 3.1 01:14:20 70° WSW 01:14:33 72° W 01:19:01 10° N
Sich 1 Rocket 3.5 01:19:01 75° ESE 01:19:06 75° E 01:23:38 10° NNE
ATLAS 2AS CENTAUR R/B 4.4 01:13:24 10° WSW 01:20:25 36° NW 01:27:48 10° NNE
Cosmos 1943 3.4 01:15:45 10° NNW 01:21:26 66° ENE 01:23:07 44° SE
Helios 1A Rocket 2.9 01:17:47 10° NNE 01:21:50 78° ENE 01:21:50 78° ENE
BREEZE-M TANK 3.0 01:17:17 10° W 01:25:16 65° N 01:27:42 15° ENE
Cosmos 1378 Rocket 3.7 01:21:49 10° N 01:26:10 60° E 01:26:17 60° E
Cosmos 2341 Rocket 4.0 01:25:29 51° S 01:27:15 80° E 01:33:39 10° N
Cosmos 962 Rocket 4.4 01:28:25 53° S 01:29:57 82° E 01:36:06 10° N
ALOS 2 3.4 01:30:07 38° W 01:30:07 38° W 01:34:08 10° NNW
Meteor 1-27 Rocket 3.7 01:25:04 10° N 01:30:56 80° E 01:32:16 55° SSE
ATLAS 3B R/B 3.9 01:26:36 10° WNW 01:31:41 23° WSW 01:32:30 22° WSW
Coronas F rocket 4.0 01:33:07 20° NNW 01:33:07 20° NNW 01:34:13 10° N
RESURS DK-1 4.0 01:33:53 24° E 01:33:53 24° E 01:36:32 10° NE
Cosmos 1603 4.2 01:27:53 10° NW 01:33:16 44° WSW 01:33:53 42° SW
Cosmos 1689 Rocket 4.2 01:36:12 24° WNW 01:36:12 24° WNW 01:38:04 10° NNW
Cosmos 1606 2.9 01:31:26 10° N 01:34:52 68° N 01:34:52 68° N
SL-8 Rocket 4.3 01:35:25 43° SE 01:37:11 57° E 01:43:22 10° NNE
USA 238 DEB 4.2 01:38:08 10° NW 01:44:37 41° WSW 01:45:45 39° SW
USA 238 4.2 01:38:13 10° NW 01:44:43 42° WSW 01:45:52 39° SW
Geosat 3.9 01:41:14 10° NNE 01:46:18 86° WNW 01:47:10 62° SW
Cosmos 2218 Rocket 4.3 01:47:11 42° SE 01:49:01 58° E 01:55:14 10° NNE
Cosmos 1862 3.4 01:50:08 76° NNW 01:50:08 76° NNW 01:53:54 10° N
Cosmos 1782 Rocket 3.4 01:53:08 79° ESE 01:53:12 79° E 01:57:36 10° N
PSLV R/B 4.1 01:53:12 59° E 01:53:21 59° ENE 01:57:22 10° N
Cosmos 1408 2.9 01:55:31 66° N 01:55:31 66° N 01:58:49 10° N
Okean 2 Rocket 3.1 01:55:06 68° ESE 01:55:19 70° E 01:59:49 10° NNE
Cosmos 2366 rocket 4.2 01:59:26 44° SSE 02:01:15 62° E 02:07:22 10° NNE
Cosmos 921 Rocket 4.0 02:02:02 33° W 02:02:31 34° WNW 02:06:23 10° N
Cosmos 44 4.5 02:00:25 27° WSW 02:02:53 43° NW 02:08:06 10° NNE
USA 234 4.2 01:59:24 10° E 02:05:35 47° NNE 02:11:47 10° NW
SeaSat 1 4.5 02:06:12 14° W 02:06:12 14° W 02:08:19 10° WNW
CENTAUR R/B 4.2 01:58:49 10° NNW 02:06:01 41° NE 02:13:42 10° ESE
Cosmos 1238 Rocket 4.0 02:05:04 10° NNW 02:07:47 29° WNW 02:07:47 29° WNW
CZ-4B R/B 4.2 02:10:53 10° WNW 02:10:53 10° WNW 02:11:05 10° WNW
Cosmos 1184 Rocket 3.8 02:12:00 45° NE 02:12:00 45° NE 02:14:36 10° NNE
Cosmos 1624 Rocket 4.2 02:11:16 49° SE 02:12:08 55° ESE 02:17:15 10° NNE
Cosmos 1825 2.7 02:13:16 49° WNW 02:13:16 49° WNW 02:16:41 10° N
CZ-2C R/B 3.2 02:12:41 52° SSW 02:14:01 72° WSW 02:19:38 10° NNW
BREEZE-M DEB (TANK) 4.2 02:11:30 10° WNW 02:14:24 39° N 02:22:22 10° ENE
Cosmos 1975 Rocket 3.1 02:10:17 10° NNW 02:14:37 60° W 02:14:37 60° W
Cosmos 1867 3.5 02:10:14 10° NW 02:15:42 73° WSW 02:16:46 56° S
NOSS 3-2 (C) 3.9 02:11:04 10° NW 02:18:33 70° WSW 02:22:15 35° SSE
Cosmos 864 Rocket 4.4 02:20:19 47° S 02:22:16 85° E 02:28:27 10° N
Cosmos 1727 Rocket 3.9 02:17:15 10° N 02:23:32 84° E 02:25:47 42° SSE
Cosmos 1812 4.4 02:20:12 10° NNE 02:23:34 27° ENE 02:24:38 24° ESE
Cosmos 1536 Rocket 4.0 02:22:15 10° N 02:26:34 56° E 02:27:28 46° SE
Cosmos 1844 Rocket 4.0 02:24:56 24° SE 02:26:36 28° ESE 02:31:20 10° NE
Cosmos 2263 Rocket 2.4 02:27:59 42° SW 02:29:47 63° WNW 02:35:28 10° NNE
Cosmos 1242 Rocket 2.7 02:29:36 10° N 02:32:42 68° N 02:32:42 68° N
CRYOSAT 2 4.4 02:31:19 10° N 02:36:10 70° E 02:37:20 50° SSE
NOSS 3-2 (A) 4.4 02:33:37 10° NW 02:40:41 44° WSW 02:43:00 36° SSW
NOSS 3-4 (A) 4.0 02:38:07 27° WSW 02:41:34 55° NW 02:48:05 10° NNE
NOSS 3-4 (C) 4.0 02:38:14 27° WSW 02:41:40 55° NW 02:48:10 10° NNE
CZ-4C R/B 3.6 02:39:09 10° NW 02:45:31 34° WSW 02:46:52 32° SW
ATLAS 5 CENTAUR R/B 4.3 02:40:41 10° NNW 02:45:45 29° NE 02:51:06 10° E
CZ-2C R/B 4.0 02:44:04 10° N 02:48:25 27° WNW 02:50:19 22° W
PSLV R/B 3.4 02:46:17 10° NNE 02:50:30 88° ESE 02:51:09 63° S
Cosmos 2278 Rocket 3.9 02:50:51 16° SE 02:53:32 23° E 02:57:54 10° NE
Okean 1 3.8 02:49:59 10° N 02:53:56 54° E 02:55:00 40° SE
Cosmos 2151 Rocket 3.7 02:53:53 53° SW 02:54:37 62° W 02:59:04 10° N
COSMOS 2406 3.2 02:49:47 10° NNW 02:55:36 87° WSW 02:58:32 31° SSE
Cosmos 1190 Rocket 3.9 02:53:28 10° NNW 02:58:40 69° WSW 03:00:14 44° S
Okean 1 Rocket 3.6 02:58:17 37° SE 02:59:39 52° E 03:04:00 10° NNE
Okean 1-7 Rocket 4.2 02:56:28 10° N 03:00:58 54° E 03:03:04 29° SE
BREEZE-M DEB (TANK) 4.2 02:51:17 10° W 03:03:53 53° NNW 03:07:37 10° ENE
Meteor 1-25 Rocket 4.2 03:04:44 39° SSW 03:06:59 82° W 03:12:50 10° N
Cosmos 2056 Rocket 4.0 03:08:09 34° WSW 03:10:03 51° WNW 03:15:10 10° N
RESURS DK-1 3.8 03:09:47 25° W 03:11:02 29° NW 03:14:43 10° N
Cosmos 407 Rocket 3.5 03:07:16 10° NNW 03:12:24 64° WSW 03:14:15 38° S
Landsat 4 3.7 03:15:01 55° WSW 03:15:19 57° WSW 03:19:05 10° NNW
Cosmos 1025 Rocket 4.3 03:13:00 10° N 03:17:00 37° ENE 03:20:14 14° SE
Abrixas rocket 3.4 03:17:35 26° WNW 03:19:01 41° NNW 03:22:15 10° ENE
Cosmos 676 Rocket 3.9 03:17:39 10° NNW 03:22:49 70° WSW 03:25:17 31° S
GP-B 3.0 03:20:48 10° N 03:25:17 87° W 03:26:58 38° S
SL-08 R/B 3.3 03:23:18 31° S 03:25:41 80° WSW 03:30:37 10° NNW
Cosmos 1821 Rocket 4.0 03:23:32 28° S 03:27:10 87° E 03:33:36 10° N
SL-16 R/B 3.7 03:22:29 10° SE 03:28:18 43° ENE 03:34:07 10° N
NOSS 2-2 (E) 3.8 03:27:12 38° S 03:28:36 59° ESE 03:33:25 10° NE
SL-27 R/B 3.0 03:25:45 10° NNW 03:29:14 41° WSW 03:29:14 41° WSW
NPP 3.6 03:24:06 10° NNE 03:29:31 82° WNW 03:32:08 32° SSW
Cosmos 2123 Rocket 4.3 03:23:32 10° N 03:29:52 69° E 03:35:24 14° SSE
Cosmos 1809 Rocket 4.4 03:29:59 29° S 03:33:20 84° W 03:39:32 10° N
Iridium 4 Rocket 4.5 03:34:35 10° NNW 03:38:42 29° W 03:40:12 25° WSW
AQUA 3.8 03:34:13 10° N 03:38:59 77° WNW 03:41:12 32° SSW
ERS-2 2.2 03:40:22 10° N 03:44:03 65° WNW 03:45:16 39° SW
Meteor 2-21 4.5 03:41:19 27° SSW 03:44:45 69° W 03:50:52 10° N
IRS-1D 4.4 03:40:01 10° NNE 03:44:51 43° E 03:48:40 15° SSE
CZ-2D R/B 3.3 03:40:24 10° NNE 03:45:27 37° E 03:50:19 11° SSE
Meteor 2-16 Rocket 4.5 03:42:10 22° S 03:46:20 83° E 03:52:30 10° N
USA 234 3.2 03:41:59 10° SE 03:48:27 63° SW 03:54:56 10° NW
Cosmos 1544 Rocket 4.4 03:45:24 17° SSE 03:48:29 47° E 03:52:42 10° NNE
Cosmos 1954 Rocket 4.1 03:43:28 10° NNW 03:48:29 53° WSW 03:51:23 24° S
Cosmos 614 Rocket 4.3 03:43:55 10° NNW 03:49:05 67° ENE 03:54:10 10° SSE
CBERS 1 LM4 rocket 4.3 03:47:03 10° N 03:51:59 78° WNW 03:54:39 26° SSW
Cosmos 1300 Rocket 4.4 03:50:51 27° WSW 03:52:24 35° WNW 03:56:27 10° N
Cosmos 1536 2.9 03:50:58 27° S 03:53:07 78° E 03:57:12 10° N
SAR-Lupe-3 4.4 03:53:06 29° S 03:54:49 75° WSW 03:58:24 10° NNW
CENTAUR R/B 3.1 03:49:27 10° NW 03:57:09 60° WSW 04:05:15 10° SSE
Cosmos 1812 4.2 03:56:22 10° NW 03:59:17 20° W 03:59:48 20° W
Meteor 1-19 Rocket 4.3 03:55:06 10° NNW 04:00:55 75° W 04:06:06 13° S
USA 161 1.4 04:01:36 37° S 04:02:33 68° W 04:05:30 10° NNW
Gbstr 26 Del rocket 3.0 04:00:16 22° WSW 04:02:40 60° NNW 04:06:23 10° NE
IRS-1C 4.3 03:58:05 10° N 04:03:21 60° WNW 04:06:44 22° SW
Cosmos 1844 Rocket 3.3 04:06:36 20° WSW 04:10:14 44° WNW 04:15:41 10° NNE
EO 1 Del DPAF 3.4 04:06:59 10° SSE 04:10:51 76° ENE 04:14:46 10° N
Cosmos 1892 Rocket 3.4 04:06:57 10° N 04:11:19 84° W 04:15:12 13° S
ARIANE 5 R/B 2.4 04:09:08 10° NNE 04:14:09 90° SSE 04:18:07 17° SSW
Meteor 1-11 Rocket 4.2 04:15:58 19° SW 04:20:05 51° WNW 04:25:55 10° N
Cosmos 1461 3.4 04:19:20 20° SW 04:22:32 63° NW 04:27:07 10° NNE
Cosmos 1356 3.5 04:20:41 22° SSW 04:22:48 64° W 04:26:22 10° N
Resurs 1-4 Rocket 2.2 04:17:43 10° NNE 04:23:03 81° ESE 04:27:59 12° S
Cosmos 2100 Rocket 4.5 04:17:16 10° S 04:23:24 62° E 04:29:39 10° NNE
Cosmos 1844 4.3 04:20:36 17° SW 04:24:41 46° WNW 04:30:15 10° NNE
Cosmos 1420 Rocket 4.5 04:21:23 18° SW 04:25:04 49° WNW 04:30:14 10° N
CZ-2D R/B 4.5 04:21:55 10° NNE 04:25:45 42° E 04:29:37 10° S
ATLAS 5 CENTAUR R/B 2.4 04:24:58 10° NW 04:30:56 67° WSW 04:37:16 10° SSE
BREEZE-M DEB (TANK) 4.2 04:28:55 14° SSW 04:32:10 30° SE 04:35:17 10° E
Cosmos 1400 Rocket 3.1 04:30:49 18° SSW 04:33:29 49° WNW 04:37:20 10° N
ADEOS 4.4 04:29:14 10° N 04:34:01 37° WNW 04:37:58 14° SW
Cosmos 1140 Rocket 4.3 04:31:53 10° NW 04:36:18 29° W 04:40:11 12° SSW
Meteor 1-23 Rocket 4.4 04:30:58 10° NNW 04:36:31 53° W 04:41:57 10° S
Cosmos 1633 3.5 04:34:35 18° SW 04:36:44 33° WNW 04:40:04 10° N
Cosmos 2278 Rocket 2.6 04:32:42 15° SW 04:37:12 53° WNW 04:42:47 10° NNE
COSMOS 2487 3.8 04:34:34 10° NW 04:37:27 22° W 04:39:08 16° SW
Cosmos 1331 Rocket 4.4 04:33:01 10° S 04:38:10 61° ESE 04:43:18 10° NNE
Cosmos 2297 3.8 04:33:17 13° SSW 04:38:24 85° ESE 04:44:08 10° NNE
UNK 3.9 04:35:51 10° S 04:40:22 54° W 04:44:56 10° NNW
Cosmos 1602 Rocket 3.8 04:37:19 10° N 04:41:40 73° E 04:46:01 10° SSE
Timation 2 Rocket 4.1 04:42:22 10° NW 04:48:17 51° WSW 04:54:01 10° S
Meteor 1-5 Rocket 4.4 04:44:58 10° SSW 04:50:47 65° WNW 04:56:29 10° N
Okean O Rocket 2.0 04:48:28 10° NNE 04:52:49 65° ESE 04:57:07 10° S
CZ-4B R/B 3.9 04:49:14 10° NNE 04:54:50 57° E 05:00:22 10° S
Cosmos 2082 Rocket 2.2 04:49:19 10° NNW 04:55:03 77° WSW 05:00:44 10° SSE
MOS 1-B 4.5 04:50:03 10° N 04:55:49 66° WNW 05:01:34 10° SSW
Abrixas rocket 4.1 04:53:33 10° WNW 04:56:37 31° N 04:59:39 10° ENE
Cosmos 2061 Rocket 4.1 04:50:34 10° S 04:56:54 80° W 05:03:22 10° N
Cosmos 1626 Rocket 3.5 04:54:43 10° NNW 04:59:05 72° W 05:03:28 10° S
Cosmos 1455 Rocket 3.8 04:56:19 10° SW 05:00:27 39° WNW 05:04:39 10° N
Cosmos 1315 Rocket 3.5 04:58:51 10° SW 05:02:41 39° WNW 05:06:30 10° N
USA 129 1.7 05:00:56 10° S 05:02:59 53° W 05:04:59 10° NNW
MOZ.5/SAFIR/RUBIN 5/SL-8 4.0 04:59:35 10° SSE 05:04:22 79° ENE 05:09:10 10° N
Cosmos 1346 Rocket 2.9 05:04:30 10° N 05:08:35 87° E 05:12:36 10° S
DNEPR-1 R/B 4.1 05:03:11 10° NNW 05:08:56 81° NE 05:13:36 10° SE
Cosmos 1743 4.3 05:08:12 10° SSE 05:11:43 35° E 05:15:14 10° NNE
SL-16 R/B 3.3 05:06:30 10° SSW 05:12:00 32° W 05:17:32 10° NNW
BREEZE-M DEB (TANK) 3.4 05:03:22 10° WNW 05:12:04 61° NNE 05:14:58 10° E
CZ-4B R/B 3.5 05:09:09 10° NNE 05:13:42 70° E 05:18:08 10° S
Cosmos 1515 3.7 05:09:54 10° N 05:13:45 90° WNW 05:17:34 10° S
Cosmos 1500 3.5 05:11:43 10° S 05:15:35 75° E 05:19:29 10° NNE
Meteor 1-12 Rocket 4.4 05:10:27 10° SSW 05:16:16 65° WNW 05:22:00 10° N
Cosmos 1302 Rocket 4.2 05:11:36 10° SSW 05:16:47 80° ESE 05:22:03 10° NNE
Cosmos 1975 3.1 05:16:23 10° SSW 05:20:17 52° W 05:24:13 10° N
Cosmos 2016 Rocket 4.1 05:16:03 10° SSW 05:22:20 70° W 05:28:34 10° N
